Regional Weather Roundup
Issued by NWS Little Rock, AR

Home | Current Version | Previous Version | Graphics & Text | Print | Product List | Glossary On
Versions: 1 2 3 4 5 6 7 8 9 10 11 12 13 14 15 16 17 18 19 20 21 22 23 24 25 26 27 28 29 30 31 32 33 34 35 36 37 38 39 40 41 42 43 44 45 46 47 48 49 50
000
ASUS44 KLZK 280405
RWRLZK

WEATHER ROUNDUP FOR ARKANSAS
NATIONAL WEATHER SERVICE LITTLE ROCK AR
1100 PM CDT WED AUG 27 2014

NOTE: "FAIR" INDICATES FEW OR NO CLOUDS BELOW 12,000 FEET WITH NO
SIGNIFICANT WEATHER AND/OR OBSTRUCTIONS TO VISIBILITY.

ARZ001-003-010-029-280500-
NORTHWEST ARKANSAS

CITY           SKY/WX    TMP DP  RH WIND       PRES   REMARKS
FAYETTEVILLE   CLEAR     73  69  87 S5        30.07S
FORT SMITH     CLEAR     81  72  74 CALM      30.02S HX  85
HARRISON       PTCLDY    77  71  82 S5        30.09S
BENTONVILLE    CLEAR     79  66  65 CALM      30.08S
ROGERS         PTCLDY    79  68  69 E6        30.09R
SILOAM SPGS      N/A     73  63  68 CALM      30.08R
HIGHFILL       PTCLDY    77  66  68 CALM      30.07R
$$

ARZ004-005-016-280500-
NORTH CENTRAL ARKANSAS

CITY           SKY/WX    TMP DP  RH WIND       PRES   REMARKS
BATESVILLE     CLEAR     79  70  73 CALM      30.04F
FLIPPIN        PTCLDY    81  64  57 CALM      30.06F
MTN HOME       PTCLDY    79  68  69 SE3       30.06S
$$

ARZ040-041-280500-
WEST CENTRAL ARKANSAS

CITY           SKY/WX    TMP DP  RH WIND       PRES   REMARKS
MENA           CLEAR     73  70  88 CALM      30.07R
MOUNT IDA      CLEAR     73  71  93 CALM      30.03S
$$

ARZ009-017-025-026-028-280500-
NORTHEAST ARKANSAS

CITY           SKY/WX    TMP DP  RH WIND       PRES   REMARKS
CORNING          N/A     81  73  78 S3        30.04S HX  85
JONESBORO      CLEAR     75  71  87 CALM      30.03S
NEWPORT        CLEAR     78  74  87 CALM      30.04S
WALNUT RIDGE   PTCLDY    75  70  83 SE6       30.03F
BLYTHEVILLE    CLEAR     78  74  87 CALM      30.04S
$$

ARZ022-023-033-042-044-280500-
CENTRAL ARKANSAS

CITY           SKY/WX    TMP DP  RH WIND       PRES   REMARKS
LITTLE ROCK    PTCLDY    79  70  74 CALM      30.03R
N LITTLE ROCK  PTCLDY    75  70  83 CALM      30.03R
JACKSONVILLE   CLEAR     74  71  88 CALM      30.03S
SEARCY         CLEAR     75  73  93 W3        30.04S
HOT SPRINGS    CLEAR     77  70  79 CALM      30.04S
RUSSELLVILLE   CLEAR     75  70  84 CALM      30.04R
CLINTON        FAIR      73  72  94 CALM      30.06S
$$

ARZ036-280500-
EAST ARKANSAS

CITY           SKY/WX    TMP DP  RH WIND       PRES   REMARKS
WEST MEMPHIS   CLEAR     74  70  87 CALM      30.02S
$$

ARZ050-053-066-070-073-280500-
SOUTHWEST ARKANSAS

CITY           SKY/WX    TMP DP  RH WIND       PRES   REMARKS
ARKADELPHIA    FAIR      74  74 100 CALM      30.03R
CAMDEN         CLEAR     72  68  88 CALM      30.01S
TEXARKANA      CLEAR     73  67  81 CALM      30.02R
EL DORADO      CLEAR     72  69  90 CALM      30.02R
DE QUEEN       CLEAR     73  72  96 CALM      30.01R FOG
$$

ARZ056-057-069-280500-
SOUTHEAST ARKANSAS

CITY           SKY/WX    TMP DP  RH WIND       PRES   REMARKS
PINE BLUFF     CLEAR     74  70  87 CALM      30.02S
STUTTGART      CLEAR     79  68  69 E6        30.03F
MONTICELLO     CLEAR     73  69  87 CALM      30.01S

$$




USA.gov is the U.S. government's official web portal to all federal, state and local government web resources and services.